Hamilton, OH

2:46 PM EDT on May 27, 2017 (GMT -0400)
Butler County Regional

Weather History for KHAO - March, 2014

Change the Weather History Date:

Monday, March 31, 2014

  Actual Average (KLUK) Record (KLUK)
Temperature  
Mean Temperature 48 °F -  
Max Temperature 70 °F 59 °F 85 °F (1986)
Min Temperature 28 °F 39 °F 23 °F (1969)
Degree Days  
Heating Degree Days 16    
Moisture  
Dew Point 30 °F    
Average Humidity 55    
Maximum Humidity 92    
Minimum Humidity 21    
Precipitation  
Precipitation 0.00 in - - ()
Sea Level Pressure  
Sea Level Pressure 30.14 in    
Wind  
Wind Speed 2 mph (ESE)    
Max Wind Speed 9 mph    
Max Gust Speed -    
Visibility 10 miles    
Events Snow    
Averages and records for this station are not official NWS values.
T = Trace of Precipitation, MM = Missing Value Source: NWS Daily Summary

Daily Weather History Graph

Daily Weather History Graph

Search for Another Location

Airport or City:

Trip Planner

Search our weather history database for the weather conditions in past years. The results will help you decide how hot, cold, wet, or windy it might be!

Date:

Astronomy

Mar. 31, 2014 Rise Set
Actual Time 7:24 AM EDT 8:00 PM EDT
Civil Twilight 6:57 AM EDT 8:28 PM EDT
Nautical Twilight 6:25 AM EDT 8:59 PM EDT
Astronomical Twilight 5:52 AM EDT 9:32 PM EDT
Moon 7:47 AM EDT (3/31) 9:18 PM EDT (3/31)
Length of Visible Light 13h 31m
Length of Day
12h 36m
New Moon, 1% of the Moon is Illuminated
Mar 31
New Moon
Apr 7
First Quarter
Apr 15
Full
Apr 22
Last Quarter
Apr 29
New

Hourly Weather History & Observations

Time (EDT) Temp. Windchill Dew Point Humidity Pressure Visibility Wind Dir Wind Speed Gust Speed Precip Events Conditions
12:53 AM 34.0 °F - 30.9 °F 89% 30.19 in 10.0 mi Calm Calm - N/A   Clear
1:53 AM 33.1 °F - 30.0 °F 89% 30.20 in 10.0 mi Calm Calm - N/A   Clear
2:53 AM 32.0 °F - 28.9 °F 88% 30.19 in 10.0 mi Calm Calm - N/A   Clear
3:53 AM 30.9 °F - 28.0 °F 89% 30.17 in 10.0 mi Calm Calm - N/A   Clear
4:53 AM 30.9 °F - 28.9 °F 92% 30.17 in 10.0 mi Calm Calm - N/A   Clear
5:53 AM 30.0 °F - 27.0 °F 88% 30.19 in 10.0 mi Calm Calm - N/A   Clear
6:53 AM 28.9 °F - 27.0 °F 92% 30.21 in 7.0 mi Calm Calm - N/A   Clear
7:53 AM 30.0 °F - 28.0 °F 92% 30.23 in 7.0 mi Calm Calm - 0.00 in Snow Light Snow
8:53 AM 37.0 °F - 33.1 °F 86% 30.25 in 9.0 mi Calm Calm - 0.00 in   Clear
9:53 AM 46.0 °F 43.1 °F 36.0 °F 68% 30.24 in 9.0 mi East 5.8 mph - N/A   Clear
10:53 AM 54.0 °F - 30.9 °F 41% 30.24 in 10.0 mi SE 5.8 mph - N/A   Clear
11:53 AM 57.0 °F - 30.9 °F 37% 30.22 in 10.0 mi SE 9.2 mph - N/A   Clear
12:53 PM 61.0 °F - 30.9 °F 32% 30.19 in 10.0 mi Variable 6.9 mph - N/A   Clear
1:53 PM 64.0 °F - 27.0 °F 25% 30.17 in 10.0 mi Variable 3.5 mph - N/A   Clear
2:53 PM 66.9 °F - 28.0 °F 23% 30.14 in 10.0 mi ESE 6.9 mph - N/A   Clear
3:53 PM 66.9 °F - 28.0 °F 23% 30.12 in 10.0 mi Variable 4.6 mph - N/A   Clear
4:53 PM 68.0 °F - 26.1 °F 21% 30.09 in 10.0 mi Variable 5.8 mph - N/A   Clear
5:53 PM 69.1 °F - 27.0 °F 21% 30.07 in 10.0 mi SSE 9.2 mph - N/A   Clear
6:53 PM 66.0 °F - 28.9 °F 25% 30.05 in 10.0 mi Variable 5.8 mph - N/A   Clear
7:53 PM 64.0 °F - 28.0 °F 26% 30.04 in 10.0 mi Variable 3.5 mph - N/A   Clear
8:53 PM 59.0 °F - 30.9 °F 35% 30.04 in 10.0 mi ESE 4.6 mph - N/A   Clear
9:53 PM 54.0 °F - 35.1 °F 49% 30.04 in 10.0 mi Calm Calm - N/A   Clear
10:53 PM 54.0 °F - 35.1 °F 49% 30.02 in 10.0 mi East 4.6 mph - N/A   Clear
11:53 PM 57.9 °F - 30.9 °F 36% 30.00 in 10.0 mi Variable 3.5 mph - N/A   Scattered Clouds